Wind_Speed
9 9 8 8 7 7 6 6 5 5 4 3 3 2 1 1 2 2 3 4 4 5 6 6 7 8 9 9 9 8 8 7 6 5 4 3 3 3 4 5 5 5 6
10 9 8 8 7 6 6 6 5 4 4 3 3 2 1 1 2 3 3 3 4 5 6 6 7 8 9 9 9 9 8 7 7 6 5 4 3 2 3 3 4 5 6
10 10 9 8 7 7 6 6 5 5 4 4 3 3 2 2 2 2 3 3 4 5 6 6 7 8 8 9 9 9 8 7 6 6 5 4 3 3 2 3 4 5 6
10 10 9 8 7 7 7 6 5 5 5 4 3 3 2 2 2 3 3 3 4 5 5 6 7 7 8 9 9 8 8 8 6 6 5 4 4 3 2 2 3 5 6
11 10 9 9 7 7 7 6 6 5 5 4 4 3 3 3 3 3 3 3 4 4 5 6 7 7 8 8 8 8 8 8 7 6 6 5 4 4 3 3 4 5 6
11 11 10 9 7 7 7 7 6 6 6 5 5 4 4 3 3 3 3 4 4 5 5 6 6 7 8 8 8 8 8 8 7 7 6 6 5 5 4 5 5 6 6
10 11 10 9 8 7 7 7 6 6 6 6 5 5 4 4 4 4 4 4 4 5 5 6 6 7 8 8 8 8 8 8 7 7 7 6 6 6 6 6 7 7 7
11 11 10 9 8 7 7 7 7 7 7 7 6 5 5 4 4 4 4 4 5 5 5 6 6 7 8 9 9 9 9 8 8 8 7 7 7 7 7 7 8 8 8
11 11 10 9 9 8 8 7 7 7 7 7 7 6 5 5 5 5 5 5 5 5 6 6 7 8 8 9 10 10 10 10 9 9 9 9 9 9 9 9 9 9 10
11 11 10 10 9 8 8 7 8 8 7 7 7 6 6 5 5 6 6 5 5 6 6 7 8 8 9 9 10 10 11 11 11 11 10 10 10 10 11 11 11 11 11
11 11 11 10 10 9 8 9 9 8 8 8 8 7 7 7 7 7 6 6 6 7 7 8 9 9 9 10 11 12 12 12 13 13 13 13 13 13 13 13 13 13 13
12 12 12 11 9 9 9 9 9 10 10 9 8 8 8 8 8 7 7 7 8 8 9 9 10 10 11 12 12 13 13 14 14 15 15 15 15 15 15 15 15 15 16
11 11 12 11 10 9 9 9 10 10 11 10 9 9 9 8 8 8 8 9 9 9 10 11 11 12 13 13 14 14 15 16 17 17 17 17 17 17 17 17 17 17 18
10 11 12 11 11 10 10 10 10 10 10 10 10 10 9 9 9 9 9 10 10 11 11 13 13 14 14 15 15 16 17 18 18 18 18 19 19 19 19 19 19 20 21
11 12 12 11 11 11 10 10 10 10 10 10 10 10 10 10 11 11 11 11 12 12 13 14 15 16 16 17 17 18 19 19 19 20 20 20 21 21 21 22 22 23 23
11 11 12 12 12 12 12 11 11 10 10 10 11 12 12 12 12 12 12 13 14 14 15 16 17 18 18 18 19 20 20 21 21 21 22 22 23 23 24 24 24 25 25
11 12 12 12 12 12 12 12 11 11 11 11 11 11 12 13 13 13 14 14 15 16 17 18 19 20 20 20 21 21 22 23 23 23 24 24 25 26 26 27 27 27 28
11 12 12 12 11 11 12 12 12 12 11 11 12 12 13 13 14 14 15 16 17 18 19 20 20 21 21 21 22 23 24 25 25 26 26 27 27 28 28 29 30 30 30
12 12 12 12 11 11 11 12 12 12 12 12 13 13 14 14 15 15 16 17 18 19 21 21 22 23 22 23 24 25 25 26 27 28 29 29 30 30 31 32 32 32 33
12 12 13 13 13 12 12 12 13 12 13 13 14 14 14 15 16 16 17 18 19 20 21 22 23 23 24 25 26 26 27 28 29 30 31 32 33 33 33 34 34 34 35
13 13 14 14 14 14 14 13 13 13 14 15 15 15 15 16 16 17 18 20 21 22 22 23 24 24 26 27 28 29 30 31 32 33 34 34 35 35 36 36 36 36 37
14 14 14 14 15 15 14 14 14 15 15 16 16 17 17 18 18 19 20 21 22 23 24 25 26 27 28 30 31 32 33 34 35 36 36 37 37 38 38 39 39 40 40
15 15 15 15 16 15 15 16 16 16 17 17 18 19 19 20 21 21 22 23 24 25 26 28 29 30 32 33 34 34 36 37 38 38 39 40 40 41 41 42 42 43 43
15 16 16 16 16 16 17 16 17 17 18 19 20 20 21 21 22 23 25 26 27 29 30 31 32 34 34 35 36 37 39 40 41 41 42 42 43 44 44 45 45 45 45
16 16 16 16 16 16 17 17 17 18 19 19 20 21 22 23 25 26 28 29 31 32 33 34 36 36 37 38 39 40 41 42 43 43 44 45 45 46 46 46 46 47 47
17 17 16 16 17 17 18 18 19 19 20 21 23 24 25 26 28 30 31 32 33 34 36 37 38 38 39 40 41 42 43 43 44 45 45 46 46 47 47 48 48 49 49
Wind_Direction
186 187 186 187 190 192 193 197 189 187 189 203 218 221 250 311 331 345 354 1 4 6 5 12 13 14 15 15 14 11 5 1 358 352 342 325 304 280 267 258 251 244 239
188 189 188 188 189 193 195 195 193 191 193 208 222 226 248 291 314 334 355 4 1 2 4 9 13 13 15 16 14 11 7 4 2 359 354 347 331 300 282 262 252 249 244
191 192 190 191 192 199 199 201 204 201 205 216 222 219 228 255 295 318 332 347 354 359 4 9 13 14 17 16 13 11 10 8 6 6 5 360 353 332 306 282 264 258 253
193 193 193 193 195 205 207 211 211 212 220 224 230 230 227 254 290 308 319 329 341 352 357 4 9 10 11 12 11 10 10 6 4 6 4 360 353 345 331 309 285 272 262
192 196 199 199 201 210 214 214 217 221 221 227 235 222 236 268 290 303 316 326 335 342 349 356 0 1 3 6 8 8 7 6 4 1 357 350 343 337 321 309 301 289 275
194 197 202 203 207 210 215 218 219 222 224 231 227 235 246 259 285 302 313 322 326 331 339 347 353 354 354 358 1 3 2 1 1 357 353 347 336 328 324 311 304 298 289
198 199 205 208 213 221 225 223 223 225 226 233 237 240 246 258 279 291 304 313 322 328 332 336 342 346 348 349 351 352 353 350 349 349 347 344 337 325 323 318 311 304 296
200 202 208 213 219 227 229 228 231 234 237 241 241 241 247 261 277 287 297 306 315 322 324 327 331 334 339 342 342 342 342 339 337 337 335 334 329 323 319 316 311 307 301
207 211 214 218 221 228 231 231 234 237 240 242 240 241 248 259 271 280 288 297 306 313 319 321 324 328 332 336 337 334 333 333 329 326 325 323 320 315 312 310 307 305 302
212 216 216 217 218 225 232 235 236 236 240 240 240 246 255 266 271 273 281 288 295 304 311 315 318 322 326 331 332 331 328 325 324 320 318 316 313 310 306 304 303 301 300
215 214 217 218 221 227 234 234 233 232 236 239 241 249 258 266 268 271 275 282 289 297 304 308 312 315 319 322 325 326 324 321 320 319 317 314 310 306 302 300 299 299 298
215 218 219 219 224 229 233 234 237 240 242 244 247 252 256 260 264 269 275 283 287 292 297 301 305 308 312 314 317 318 318 317 316 315 313 311 309 305 301 298 296 294 294
216 218 218 221 226 231 236 239 244 248 247 249 250 254 258 260 263 268 276 282 285 290 294 298 302 305 307 309 311 313 313 314 313 312 309 307 305 302 300 298 295 292 291
218 221 222 227 228 232 239 243 246 247 247 249 251 257 260 260 263 270 276 279 283 287 292 296 300 303 305 306 308 309 311 312 313 311 308 305 303 301 298 296 294 293 291
222 226 227 230 231 233 239 246 249 247 248 250 253 258 260 262 267 272 275 277 280 285 291 295 298 301 302 304 306 308 309 309 308 307 306 303 301 300 298 296 294 292 291
226 229 230 233 235 235 241 247 249 247 251 254 257 259 261 265 270 274 277 278 280 284 290 295 297 299 301 302 304 305 305 305 305 304 303 302 301 300 299 297 295 294 292
231 232 232 233 237 240 243 246 248 248 253 258 263 266 268 269 271 276 279 281 282 286 291 294 296 298 299 300 301 303 304 304 303 302 302 302 301 300 299 297 296 294 293
237 235 236 237 241 244 246 249 249 250 256 262 268 271 272 271 272 277 280 284 286 289 291 294 295 296 297 299 300 301 302 302 302 302 301 301 300 299 298 298 296 294 292
238 239 239 241 244 247 248 249 249 253 259 265 271 274 272 272 275 279 283 286 288 290 293 295 295 297 297 299 300 300 300 301 301 302 302 301 300 299 298 297 296 294 292
240 241 242 243 245 247 251 253 252 255 261 267 271 274 274 275 278 282 286 289 292 294 295 296 297 297 299 300 299 299 299 299 300 300 301 301 300 299 298 297 295 294 293
242 244 246 245 246 250 253 256 257 260 264 267 272 275 278 279 281 285 289 292 293 295 296 297 298 299 300 300 300 299 300 300 300 300 300 300 299 299 298 297 295 293 292
245 245 247 247 249 252 253 256 260 264 267 270 275 278 280 282 283 287 290 292 294 295 296 298 299 299 300 300 300 300 300 300 300 300 300 299 298 298 297 296 294 293 292
245 246 244 246 248 251 254 257 261 265 269 273 277 279 281 283 286 290 292 293 294 295 296 298 299 299 299 300 300 300 300 299 299 299 298 298 297 297 297 296 294 293 292
249 251 248 247 250 253 256 259 262 268 272 275 278 280 282 284 286 290 292 294 295 296 297 298 298 299 298 299 299 299 299 298 298 298 297 297 297 296 296 295 294 293 292
251 253 251 252 255 256 258 262 267 270 272 276 279 281 284 286 289 292 293 295 296 297 298 299 299 299 298 298 298 298 299 299 298 298 297 297 297 296 296 295 294 293 292
253 253 254 256 257 259 261 266 270 273 275 278 281 283 285 288 291 293 294 295 297 298 298 298 298 298 298 298 299 300 300 299 299 298 298 298 298 297 297 296 295 294 294
Height
5872 5874 5875 5876 5877 5878 5879 5879 5880 5880 5881 5881 5882 5882 5882 5882 5881 5881 5880 5879 5878 5877 5875 5874 5872 5870 5868 5866 5864 5862 5860 5859 5857 5856 5855 5855 5854 5854 5854 5854 5855 5855 5856
5871 5873 5874 5875 5876 5877 5878 5878 5879 5879 5880 5880 5881 5881 5881 5881 5881 5880 5879 5879 5877 5876 5875 5873 5872 5870 5868 5866 5864 5862 5860 5858 5857 5856 5855 5854 5854 5853 5853 5853 5854 5854 5854
5870 5871 5873 5874 5875 5876 5877 5877 5878 5879 5879 5879 5879 5880 5880 5880 5880 5879 5879 5878 5877 5876 5874 5873 5871 5870 5868 5866 5864 5862 5860 5859 5857 5856 5855 5854 5854 5853 5853 5853 5853 5853 5853
5869 5870 5872 5873 5874 5875 5876 5877 5877 5878 5878 5878 5878 5879 5879 5879 5879 5879 5878 5877 5876 5875 5874 5872 5871 5870 5868 5866 5864 5862 5861 5859 5857 5856 5855 5855 5854 5853 5853 5852 5852 5852 5852
5867 5869 5870 5872 5873 5874 5875 5876 5876 5876 5877 5877 5877 5878 5878 5878 5878 5878 5877 5876 5875 5874 5873 5872 5871 5869 5868 5866 5864 5862 5861 5859 5858 5856 5855 5854 5854 5853 5852 5852 5851 5851 5850
5866 5868 5869 5871 5872 5873 5873 5874 5875 5875 5876 5876 5876 5877 5877 5877 5877 5877 5876 5875 5875 5874 5872 5871 5870 5869 5867 5866 5864 5862 5861 5859 5858 5856 5855 5854 5853 5852 5851 5851 5850 5849 5849
5865 5867 5868 5869 5870 5871 5872 5873 5873 5874 5874 5875 5875 5876 5876 5876 5876 5875 5875 5874 5874 5873 5872 5870 5869 5868 5867 5865 5863 5862 5860 5859 5857 5856 5855 5854 5852 5851 5851 5850 5849 5848 5847
5863 5865 5866 5868 5869 5870 5870 5871 5872 5872 5873 5873 5874 5874 5874 5874 5874 5874 5874 5873 5872 5871 5870 5869 5868 5867 5866 5864 5862 5861 5859 5858 5856 5855 5854 5853 5851 5850 5850 5849 5848 5847 5846
5861 5863 5865 5866 5867 5868 5869 5869 5870 5871 5871 5872 5872 5873 5873 5873 5873 5873 5872 5872 5871 5870 5869 5868 5867 5866 5865 5863 5861 5860 5858 5857 5855 5854 5853 5851 5850 5849 5848 5847 5846 5845 5844
5860 5861 5863 5864 5865 5866 5867 5868 5868 5869 5870 5870 5871 5871 5871 5871 5871 5871 5871 5870 5870 5869 5868 5867 5866 5865 5863 5862 5860 5859 5857 5855 5854 5853 5851 5850 5848 5847 5846 5845 5844 5842 5841
5858 5859 5861 5862 5863 5864 5865 5866 5866 5867 5867 5868 5869 5869 5869 5869 5869 5869 5868 5868 5868 5867 5866 5865 5864 5863 5862 5860 5859 5857 5856 5854 5852 5851 5849 5847 5846 5844 5843 5841 5840 5839 5838
5855 5857 5858 5860 5861 5862 5863 5863 5864 5865 5865 5866 5866 5866 5866 5866 5866 5866 5866 5866 5865 5865 5864 5863 5862 5861 5860 5858 5856 5855 5853 5852 5850 5848 5846 5844 5843 5841 5839 5838 5836 5835 5834
5853 5855 5856 5857 5858 5859 5860 5861 5862 5862 5862 5863 5863 5864 5864 5863 5863 5864 5863 5863 5863 5862 5861 5861 5859 5858 5857 5855 5854 5852 5850 5849 5847 5845 5843 5841 5839 5837 5835 5834 5832 5831 5829
5851 5852 5854 5855 5856 5857 5858 5859 5859 5859 5860 5860 5860 5861 5861 5861 5861 5860 5860 5860 5860 5859 5858 5858 5856 5855 5854 5852 5850 5849 5847 5845 5843 5840 5838 5836 5834 5832 5830 5829 5827 5825 5824
5848 5850 5851 5852 5854 5855 5855 5856 5856 5857 5857 5857 5857 5857 5857 5857 5857 5857 5857 5856 5856 5856 5855 5854 5853 5851 5850 5848 5846 5845 5843 5840 5838 5836 5834 5831 5829 5827 5825 5823 5821 5819 5817
5845 5847 5848 5850 5851 5852 5853 5853 5853 5854 5854 5854 5854 5854 5854 5853 5853 5853 5853 5852 5852 5851 5851 5850 5848 5847 5845 5843 5842 5840 5838 5835 5833 5831 5828 5826 5823 5821 5819 5816 5814 5812 5809
5843 5844 5845 5847 5848 5848 5849 5850 5850 5850 5850 5850 5850 5849 5849 5849 5849 5849 5849 5848 5848 5847 5846 5845 5843 5842 5840 5838 5836 5834 5832 5829 5827 5825 5822 5820 5817 5814 5812 5809 5807 5804 5801
5840 5841 5842 5843 5844 5845 5846 5846 5847 5847 5847 5847 5846 5846 5845 5845 5845 5845 5844 5844 5843 5842 5841 5839 5838 5836 5834 5832 5830 5828 5826 5823 5821 5818 5816 5813 5810 5807 5804 5802 5799 5796 5793
5837 5838 5839 5840 5841 5842 5842 5843 5843 5843 5843 5843 5843 5842 5841 5841 5841 5840 5840 5839 5838 5837 5836 5834 5832 5830 5828 5826 5824 5821 5819 5816 5813 5811 5808 5805 5802 5799 5796 5793 5790 5787 5784
5833 5834 5835 5836 5837 5838 5839 5839 5840 5840 5840 5840 5839 5838 5838 5837 5836 5836 5835 5834 5833 5831 5830 5828 5826 5823 5821 5819 5817 5814 5812 5809 5806 5803 5800 5796 5793 5789 5786 5783 5780 5777 5774
5830 5831 5832 5833 5834 5834 5835 5835 5836 5836 5836 5836 5835 5834 5834 5833 5832 5831 5830 5829 5827 5826 5824 5821 5819 5817 5814 5812 5809 5807 5804 5801 5798 5794 5791 5787 5784 5780 5776 5773 5769 5766 5763
5826 5827 5827 5828 5829 5830 5830 5831 5831 5832 5832 5831 5831 5830 5829 5828 5827 5826 5825 5823 5821 5819 5817 5815 5813 5810 5807 5804 5801 5798 5795 5791 5788 5785 5781 5777 5773 5770 5766 5762 5758 5754 5751
5821 5822 5823 5823 5824 5825 5826 5826 5827 5827 5827 5826 5826 5825 5824 5823 5821 5820 5819 5817 5815 5812 5810 5808 5805 5802 5799 5796 5792 5789 5785 5781 5778 5774 5770 5766 5762 5758 5754 5750 5746 5742 5738
5817 5817 5818 5819 5820 5820 5821 5821 5821 5821 5821 5821 5820 5819 5818 5817 5816 5814 5812 5810 5807 5805 5802 5799 5796 5793 5790 5786 5782 5779 5775 5771 5767 5763 5758 5754 5749 5745 5741 5736 5732 5728 5724
5812 5813 5813 5814 5815 5815 5816 5816 5816 5816 5816 5815 5814 5813 5812 5811 5809 5807 5804 5802 5799 5796 5793 5790 5787 5783 5780 5776 5772 5768 5764 5759 5755 5750 5746 5741 5737 5732 5728 5723 5718 5714 5710
5807 5808 5808 5809 5810 5810 5810 5811 5810 5810 5809 5809 5808 5807 5805 5803 5801 5799 5796 5793 5790 5786 5783 5779 5776 5772 5768 5764 5760 5756 5751 5746 5742 5737 5733 5728 5723 5719 5714 5709 5705 5700 5695